Location: Hermaringen
(48.5952°N, 10.2585°E)
Time: 05:56:11
(UTC+00:00)

Transit 2A - Pass Details

Date: 22 February 2026
Orbit: 590 x 954 km, 66.7° (Epoch: 14 March)

Event Time Altitude Azimuth Distance (km) Brightness Sun altitude
Rises 21:13:07 0° 311° (NW) 3,520 10.3 -41.6°
Reaches altitude 10° 21:17:08 10° 286° (WNW) 2,501 9.2 -42.1°
Enters shadow 21:18:35 12° 271° (W) 2,299 8.8 -42.3°
